Time,TemperatureF,DewpointF,PressureIn,WindDirection,WindDirectionDegrees,WindSpeedMPH,WindSpeedGustMPH,Humidity,HourlyPrecipIn,Conditions,Clouds,dailyrainin,SoftwareType,DateUTC
2013-05-17 00:01:00,59.0,50.0,29.86,NNW,337,5.6,7.0,72,0.00,,,0.00,Rainwise IP-100,2013-05-17 04:01:00,
2013-05-17 00:06:00,59.0,50.0,29.86,NNW,337,4.9,7.0,71,0.00,,,0.00,Rainwise IP-100,2013-05-17 04:06:00,
2013-05-17 00:11:00,59.1,49.0,29.86,NNW,337,4.4,5.4,70,0.00,,,0.00,Rainwise IP-100,2013-05-17 04:11:00,
2013-05-17 00:16:00,59.4,49.0,29.86,NNW,337,4.2,5.6,69,0.00,,,0.00,Rainwise IP-100,2013-05-17 04:16:00,
2013-05-17 00:21:00,59.6,49.0,29.86,NNW,337,4.9,5.4,68,0.00,,,0.00,Rainwise IP-100,2013-05-17 04:21:00,
2013-05-17 00:26:00,59.6,48.0,29.87,NNW,337,4.7,5.1,67,0.00,,,0.00,Rainwise IP-100,2013-05-17 04:26:00,
2013-05-17 00:31:00,59.9,48.0,29.87,NNW,337,3.0,5.1,66,0.00,,,0.00,Rainwise IP-100,2013-05-17 04:31:00,
2013-05-17 00:37:00,60.0,48.0,29.87,NNW,337,3.3,4.4,65,0.00,,,0.00,Rainwise IP-100,2013-05-17 04:37:00,
2013-05-17 00:42:00,59.7,48.0,29.87,NNW,337,3.3,4.4,66,0.00,,,0.00,Rainwise IP-100,2013-05-17 04:42:00,
2013-05-17 00:47:00,59.2,48.0,29.87,NNW,337,4.0,4.4,67,0.00,,,0.00,Rainwise IP-100,2013-05-17 04:47:00,
2013-05-17 00:52:00,59.1,48.0,29.88,NNW,337,1.9,4.0,67,0.00,,,0.00,Rainwise IP-100,2013-05-17 04:52:00,
2013-05-17 00:57:00,59.1,48.0,29.88,SSE,157,2.8,2.8,67,0.00,,,0.00,Rainwise IP-100,2013-05-17 04:57:00,
2013-05-17 01:02:00,58.6,50.0,29.88,SSE,157,2.1,3.7,71,0.00,,,0.00,Rainwise IP-100,2013-05-17 05:02:00,
2013-05-17 01:07:00,58.2,50.0,29.89,ESE,112,1.4,2.6,74,0.00,,,0.00,Rainwise IP-100,2013-05-17 05:07:00,
2013-05-17 01:13:00,58.2,50.0,29.88,ESE,112,1.4,2.1,74,0.00,,,0.00,Rainwise IP-100,2013-05-17 05:13:00,
2013-05-17 01:18:00,57.7,50.0,29.89,SE,135,1.2,2.6,76,0.00,,,0.00,Rainwise IP-100,2013-05-17 05:18:00,
2013-05-17 01:23:00,57.2,50.5,29.89,SE,135,0.0,1.9,78,0.00,,,0.00,Rainwise IP-100,2013-05-17 05:23:00,
2013-05-17 01:28:00,56.9,51.0,29.89,SE,135,0.0,0.0,80,0.00,,,0.00,Rainwise IP-100,2013-05-17 05:28:00,
2013-05-17 01:33:00,56.6,50.0,29.89,WNW,292,2.6,5.4,79,0.00,,,0.00,Rainwise IP-100,2013-05-17 05:33:00,
2013-05-17 01:38:00,56.9,50.0,29.89,NW,315,7.7,12.1,77,0.00,,,0.00,Rainwise IP-100,2013-05-17 05:38:00,
2013-05-17 01:43:00,59.6,48.0,29.88,NNW,337,14.7,16.8,67,0.00,,,0.00,Rainwise IP-100,2013-05-17 05:43:00,
2013-05-17 01:48:00,63.2,46.0,29.89,NNW,337,10.3,19.8,53,0.00,,,0.00,Rainwise IP-100,2013-05-17 05:48:00,
2013-05-17 01:54:00,65.1,42.0,29.89,NW,315,11.9,18.2,44,0.00,,,0.00,Rainwise IP-100,2013-05-17 05:54:00,
2013-05-17 01:59:00,65.9,41.0,29.89,NNW,337,10.7,18.9,41,0.00,,,0.00,Rainwise IP-100,2013-05-17 05:59:00,
2013-05-17 02:04:00,66.4,39.0,29.89,NW,315,15.9,21.9,37,0.00,,,0.00,Rainwise IP-100,2013-05-17 06:04:00,
2013-05-17 02:09:00,66.6,39.0,29.90,NW,315,15.4,23.6,36,0.00,,,0.00,Rainwise IP-100,2013-05-17 06:09:00,
2013-05-17 02:14:00,66.7,38.0,29.90,NNW,337,14.2,24.0,35,0.00,,,0.00,Rainwise IP-100,2013-05-17 06:14:00,
2013-05-17 02:19:00,66.5,37.0,29.89,NW,315,13.8,19.6,34,0.00,,,0.00,Rainwise IP-100,2013-05-17 06:19:00,
2013-05-17 02:24:00,66.4,37.0,29.90,NNW,337,20.1,26.3,34,0.00,,,0.00,Rainwise IP-100,2013-05-17 06:24:00,
2013-05-17 02:30:00,66.4,36.0,29.90,NNW,337,11.0,20.1,33,0.00,,,0.00,Rainwise IP-100,2013-05-17 06:30:00,
2013-05-17 02:35:00,66.1,36.0,29.90,NW,315,8.4,18.7,33,0.00,,,0.00,Rainwise IP-100,2013-05-17 06:35:00,
2013-05-17 02:40:00,65.7,36.0,29.90,NW,315,7.7,20.1,34,0.00,,,0.00,Rainwise IP-100,2013-05-17 06:40:00,
2013-05-17 02:45:00,65.4,36.0,29.91,NNW,337,8.6,16.1,34,0.00,,,0.00,Rainwise IP-100,2013-05-17 06:45:00,
2013-05-17 02:50:00,65.1,37.0,29.92,NW,315,7.9,12.1,35,0.00,,,0.00,Rainwise IP-100,2013-05-17 06:50:00,
2013-05-17 02:55:00,64.9,37.0,29.92,NW,315,10.0,15.6,35,0.00,,,0.00,Rainwise IP-100,2013-05-17 06:55:00,
2013-05-17 03:00:00,64.9,37.0,29.92,WNW,292,12.1,18.0,35,0.00,,,0.00,Rainwise IP-100,2013-05-17 07:00:00,
2013-05-17 03:05:00,64.8,37.0,29.92,NNW,337,7.2,17.0,35,0.00,,,0.00,Rainwise IP-100,2013-05-17 07:05:00,
2013-05-17 03:11:00,64.6,37.0,29.92,NNW,337,11.9,16.8,36,0.00,,,0.00,Rainwise IP-100,2013-05-17 07:11:00,
2013-05-17 03:16:00,64.4,37.0,29.93,NNW,337,6.1,13.5,36,0.00,,,0.00,Rainwise IP-100,2013-05-17 07:16:00,
2013-05-17 03:21:00,64.0,37.0,29.93,NNW,337,10.7,14.2,37,0.00,,,0.00,Rainwise IP-100,2013-05-17 07:21:00,
2013-05-17 03:26:00,63.7,37.0,29.93,NNW,337,8.2,14.5,38,0.00,,,0.00,Rainwise IP-100,2013-05-17 07:26:00,
2013-05-17 03:31:00,63.5,38.0,29.93,NNW,337,7.5,12.6,39,0.00,,,0.00,Rainwise IP-100,2013-05-17 07:31:00,
2013-05-17 03:36:00,63.4,38.0,29.93,NW,315,7.7,13.3,39,0.00,,,0.00,Rainwise IP-100,2013-05-17 07:36:00,
2013-05-17 03:41:00,63.2,38.0,29.93,NNW,337,9.3,11.2,40,0.00,,,0.00,Rainwise IP-100,2013-05-17 07:41:00,
2013-05-17 03:47:00,63.0,38.0,29.94,NW,315,7.7,12.6,40,0.00,,,0.00,Rainwise IP-100,2013-05-17 07:47:00,
2013-05-17 03:52:00,62.8,38.0,29.94,NW,315,7.9,14.9,40,0.00,,,0.00,Rainwise IP-100,2013-05-17 07:52:00,
2013-05-17 03:57:00,62.6,38.0,29.95,NW,315,11.0,13.3,40,0.00,,,0.00,Rainwise IP-100,2013-05-17 07:57:00,
2013-05-17 04:02:00,62.4,38.0,29.94,NW,315,8.9,12.1,41,0.00,,,0.00,Rainwise IP-100,2013-05-17 08:02:00,
2013-05-17 04:07:00,62.1,39.0,29.94,NW,315,9.6,11.7,42,0.00,,,0.00,Rainwise IP-100,2013-05-17 08:07:00,
2013-05-17 04:12:00,61.7,39.0,29.95,NW,315,8.9,10.7,43,0.00,,,0.00,Rainwise IP-100,2013-05-17 08:12:00,
2013-05-17 04:17:00,61.4,39.0,29.95,NW,315,9.3,11.0,43,0.00,,,0.00,Rainwise IP-100,2013-05-17 08:17:00,
2013-05-17 04:22:00,61.2,39.0,29.95,NNW,337,8.4,13.1,44,0.00,,,0.00,Rainwise IP-100,2013-05-17 08:22:00,
2013-05-17 04:27:00,61.0,39.0,29.95,NNW,337,10.3,11.9,45,0.00,,,0.00,Rainwise IP-100,2013-05-17 08:27:00,
2013-05-17 04:33:00,60.7,39.0,29.96,NNW,337,7.9,11.9,46,0.00,,,0.00,Rainwise IP-100,2013-05-17 08:33:00,
2013-05-17 04:38:00,60.4,39.0,29.96,NNW,337,8.2,15.2,46,0.00,,,0.00,Rainwise IP-100,2013-05-17 08:38:00,
2013-05-17 04:43:00,60.2,39.0,29.96,NNW,337,7.0,12.1,47,0.00,,,0.00,Rainwise IP-100,2013-05-17 08:43:00,
2013-05-17 04:48:00,59.9,39.0,29.97,NNW,337,7.2,10.0,47,0.00,,,0.00,Rainwise IP-100,2013-05-17 08:48:00,
2013-05-17 04:53:00,59.5,39.0,29.97,NNW,337,7.0,10.5,48,0.00,,,0.00,Rainwise IP-100,2013-05-17 08:53:00,
2013-05-17 04:58:00,59.2,40.0,29.99,NNW,337,5.1,9.3,49,0.00,,,0.00,Rainwise IP-100,2013-05-17 08:58:00,
2013-05-17 05:03:00,59.1,40.0,29.99,NNW,337,11.2,12.1,49,0.00,,,0.00,Rainwise IP-100,2013-05-17 09:03:00,
2013-05-17 05:08:00,59.3,40.0,30.00,NNW,337,7.5,16.1,49,0.00,,,0.00,Rainwise IP-100,2013-05-17 09:08:00,
2013-05-17 05:14:00,59.5,39.0,30.00,NNW,337,10.3,14.0,48,0.00,,,0.00,Rainwise IP-100,2013-05-17 09:14:00,
2013-05-17 05:19:00,59.3,40.0,30.00,NNW,337,6.1,12.8,49,0.00,,,0.00,Rainwise IP-100,2013-05-17 09:19:00,
2013-05-17 05:24:00,59.0,40.0,30.00,NNW,337,8.6,11.9,50,0.00,,,0.00,Rainwise IP-100,2013-05-17 09:24:00,
2013-05-17 05:29:00,58.4,40.0,30.00,NNW,337,6.1,11.4,51,0.00,,,0.00,Rainwise IP-100,2013-05-17 09:29:00,
2013-05-17 05:34:00,58.0,40.0,30.01,NNW,337,9.1,9.1,52,0.00,,,0.00,Rainwise IP-100,2013-05-17 09:34:00,
2013-05-17 05:39:00,57.7,40.0,30.01,NNW,337,5.1,9.1,53,0.00,,,0.00,Rainwise IP-100,2013-05-17 09:39:00,
2013-05-17 05:44:00,57.5,41.0,30.01,NNW,337,7.7,8.2,54,0.00,,,0.00,Rainwise IP-100,2013-05-17 09:44:00,
2013-05-17 05:49:00,57.3,41.0,30.02,NNW,337,4.9,9.1,54,0.00,,,0.00,Rainwise IP-100,2013-05-17 09:49:00,
2013-05-17 05:55:00,57.2,41.0,30.03,NNW,337,6.3,7.7,55,0.00,,,0.00,Rainwise IP-100,2013-05-17 09:55:00,
2013-05-17 06:00:00,57.2,41.0,30.03,NNW,337,5.8,10.3,56,0.00,,,0.00,Rainwise IP-100,2013-05-17 10:00:00,
2013-05-17 06:05:00,57.2,41.0,30.03,NW,315,6.5,10.0,56,0.00,,,0.00,Rainwise IP-100,2013-05-17 10:05:00,
2013-05-17 06:10:00,57.3,42.0,30.03,NNW,337,6.8,9.3,56,0.00,,,0.00,Rainwise IP-100,2013-05-17 10:10:00,
2013-05-17 06:15:00,57.3,42.0,30.02,NNW,337,4.7,8.6,56,0.00,,,0.00,Rainwise IP-100,2013-05-17 10:15:00,
2013-05-17 06:20:00,57.2,42.0,30.03,NNW,337,3.7,7.7,57,0.00,,,0.00,Rainwise IP-100,2013-05-17 10:20:00,
2013-05-17 06:25:00,57.4,42.0,30.03,NNW,337,5.8,7.2,57,0.00,,,0.00,Rainwise IP-100,2013-05-17 10:25:00,
2013-05-17 06:31:00,57.6,42.0,30.03,NW,315,4.4,7.0,57,0.00,,,0.00,Rainwise IP-100,2013-05-17 10:31:00,
2013-05-17 06:36:00,57.5,42.0,30.03,NW,315,5.6,7.5,57,0.00,,,0.00,Rainwise IP-100,2013-05-17 10:36:00,
2013-05-17 06:41:00,57.6,42.0,30.03,NNW,337,5.6,8.2,57,0.00,,,0.00,Rainwise IP-100,2013-05-17 10:41:00,
2013-05-17 06:46:00,57.7,42.0,30.04,NNW,337,2.8,8.9,57,0.00,,,0.00,Rainwise IP-100,2013-05-17 10:46:00,
2013-05-17 06:51:00,57.6,42.0,30.04,NNW,337,5.1,8.6,57,0.00,,,0.00,Rainwise IP-100,2013-05-17 10:51:00,
2013-05-17 06:55:00,57.7,43.0,30.04,NNW,337,7.7,8.2,58,0.00,,,0.00,Rainwise IP-100,2013-05-17 10:55:00,
2013-05-17 07:00:00,57.9,43.0,30.04,NNW,337,5.1,8.2,58,0.00,,,0.00,Rainwise IP-100,2013-05-17 11:00:00,
2013-05-17 07:05:00,58.2,43.0,30.05,NNW,337,7.2,8.9,57,0.00,,,0.00,Rainwise IP-100,2013-05-17 11:05:00,
2013-05-17 07:10:00,58.7,43.0,30.05,NNE,22,8.9,11.2,56,0.00,,,0.00,Rainwise IP-100,2013-05-17 11:10:00,
2013-05-17 07:16:00,59.0,42.0,30.05,North,360,7.5,12.1,54,0.00,,,0.00,Rainwise IP-100,2013-05-17 11:16:00,
2013-05-17 07:21:00,59.1,42.0,30.05,NNW,337,7.0,10.7,53,0.00,,,0.00,Rainwise IP-100,2013-05-17 11:21:00,
2013-05-17 07:26:00,59.2,42.0,30.05,NNW,337,6.3,11.7,53,0.00,,,0.00,Rainwise IP-100,2013-05-17 11:26:00,
2013-05-17 07:31:00,59.0,41.0,30.06,NNW,337,4.9,13.1,52,0.00,,,0.00,Rainwise IP-100,2013-05-17 11:31:00,
2013-05-17 07:36:00,59.0,41.0,30.06,NNW,337,10.7,10.7,52,0.00,,,0.00,Rainwise IP-100,2013-05-17 11:36:00,
2013-05-17 07:41:00,59.2,41.0,30.06,NNW,337,6.8,11.7,52,0.00,,,0.00,Rainwise IP-100,2013-05-17 11:41:00,
2013-05-17 07:46:00,59.2,42.0,30.07,WNW,292,6.1,9.3,53,0.00,,,0.00,Rainwise IP-100,2013-05-17 11:46:00,
2013-05-17 07:51:00,59.2,42.0,30.06,WNW,292,13.3,14.7,53,0.00,,,0.00,Rainwise IP-100,2013-05-17 11:51:00,
2013-05-17 07:56:00,59.3,42.0,30.06,NW,315,9.3,14.9,52,0.00,,,0.00,Rainwise IP-100,2013-05-17 11:56:00,
2013-05-17 08:02:00,59.5,41.0,30.06,WNW,292,9.8,16.8,51,0.00,,,0.00,Rainwise IP-100,2013-05-17 12:02:00,
2013-05-17 08:07:00,59.8,41.0,30.06,NW,315,10.0,17.0,50,0.00,,,0.00,Rainwise IP-100,2013-05-17 12:07:00,
2013-05-17 08:12:00,60.0,41.0,30.07,NW,315,10.7,13.5,50,0.00,,,0.00,Rainwise IP-100,2013-05-17 12:12:00,
2013-05-17 08:17:00,60.3,41.0,30.07,NW,315,8.6,17.3,49,0.00,,,0.00,Rainwise IP-100,2013-05-17 12:17:00,
2013-05-17 08:22:00,60.4,41.0,30.07,NNW,337,10.3,18.7,49,0.00,,,0.00,Rainwise IP-100,2013-05-17 12:22:00,
2013-05-17 08:27:00,60.5,41.0,30.07,NNW,337,14.0,20.8,49,0.00,,,0.00,Rainwise IP-100,2013-05-17 12:27:00,
2013-05-17 08:32:00,60.5,40.0,30.06,NNW,337,19.4,22.9,48,0.00,,,0.00,Rainwise IP-100,2013-05-17 12:32:00,
2013-05-17 08:38:00,60.5,40.0,30.07,NNW,337,14.9,22.4,47,0.00,,,0.00,Rainwise IP-100,2013-05-17 12:38:00,
2013-05-17 08:43:00,60.6,40.0,30.07,NNW,337,11.0,18.7,47,0.00,,,0.00,Rainwise IP-100,2013-05-17 12:43:00,
2013-05-17 08:48:00,60.8,40.0,30.07,NW,315,10.0,23.8,47,0.00,,,0.00,Rainwise IP-100,2013-05-17 12:48:00,
2013-05-17 08:53:00,60.7,40.0,30.07,NNW,337,11.7,16.8,47,0.00,,,0.00,Rainwise IP-100,2013-05-17 12:53:00,
2013-05-17 08:58:00,60.7,40.0,30.07,WNW,292,16.8,18.0,47,0.00,,,0.00,Rainwise IP-100,2013-05-17 12:58:00,
2013-05-17 09:03:00,60.6,40.0,30.08,NW,315,13.3,18.4,47,0.00,,,0.00,Rainwise IP-100,2013-05-17 13:03:00,
2013-05-17 09:08:00,60.7,40.0,30.08,WNW,292,8.4,15.6,47,0.00,,,0.00,Rainwise IP-100,2013-05-17 13:08:00,
2013-05-17 09:13:00,60.9,40.0,30.08,NNW,337,8.6,10.7,47,0.00,,,0.00,Rainwise IP-100,2013-05-17 13:13:00,
2013-05-17 09:19:00,61.1,40.0,30.08,NNW,337,7.0,12.6,47,0.00,,,0.00,Rainwise IP-100,2013-05-17 13:19:00,
2013-05-17 09:24:00,61.1,40.0,30.09,WNW,292,11.9,15.2,47,0.00,,,0.00,Rainwise IP-100,2013-05-17 13:24:00,
2013-05-17 09:29:00,61.0,40.0,30.08,WNW,292,14.0,15.9,47,0.00,,,0.00,Rainwise IP-100,2013-05-17 13:29:00,
2013-05-17 09:34:00,60.9,40.0,30.08,NNW,337,14.7,18.2,46,0.00,,,0.00,Rainwise IP-100,2013-05-17 13:34:00,
2013-05-17 09:39:00,60.9,39.0,30.08,NNW,337,9.1,17.7,45,0.00,,,0.00,Rainwise IP-100,2013-05-17 13:39:00,
2013-05-17 09:44:00,60.9,39.0,30.09,NW,315,10.0,15.6,45,0.00,,,0.00,Rainwise IP-100,2013-05-17 13:44:00,
2013-05-17 09:49:00,61.0,39.0,30.09,WNW,292,11.2,14.2,45,0.00,,,0.00,Rainwise IP-100,2013-05-17 13:49:00,
2013-05-17 09:55:00,61.0,39.0,30.08,NNW,337,15.6,17.7,45,0.00,,,0.00,Rainwise IP-100,2013-05-17 13:55:00,
2013-05-17 10:00:00,60.9,39.0,30.09,NNW,337,7.7,15.6,45,0.00,,,0.00,Rainwise IP-100,2013-05-17 14:00:00,
2013-05-17 10:05:00,61.1,39.0,30.09,NNW,337,10.7,13.1,45,0.00,,,0.00,Rainwise IP-100,2013-05-17 14:05:00,
2013-05-17 10:10:00,61.4,40.0,30.09,NNW,337,6.8,12.4,45,0.00,,,0.00,Rainwise IP-100,2013-05-17 14:10:00,
2013-05-17 10:15:00,61.4,40.0,30.10,NW,315,10.3,16.3,45,0.00,,,0.00,Rainwise IP-100,2013-05-17 14:15:00,
2013-05-17 10:20:00,61.4,40.0,30.09,NW,315,13.3,14.7,45,0.00,,,0.00,Rainwise IP-100,2013-05-17 14:20:00,
2013-05-17 10:25:00,61.2,39.0,30.09,NNW,337,7.7,14.5,45,0.00,,,0.00,Rainwise IP-100,2013-05-17 14:25:00,
2013-05-17 10:30:00,61.2,40.0,30.09,NW,315,7.2,13.1,46,0.00,,,0.00,Rainwise IP-100,2013-05-17 14:30:00,
2013-05-17 10:36:00,61.3,40.0,30.10,NNW,337,7.2,10.7,46,0.00,,,0.00,Rainwise IP-100,2013-05-17 14:36:00,
2013-05-17 10:41:00,61.4,40.0,30.10,North,360,7.9,16.3,46,0.00,,,0.00,Rainwise IP-100,2013-05-17 14:41:00,
2013-05-17 10:46:00,61.7,40.0,30.10,NNE,22,9.3,14.2,45,0.00,,,0.00,Rainwise IP-100,2013-05-17 14:46:00,
2013-05-17 10:51:00,61.9,41.0,30.11,NNW,337,3.0,13.5,46,0.00,,,0.00,Rainwise IP-100,2013-05-17 14:51:00,
2013-05-17 10:56:00,61.9,41.0,30.10,NNW,337,9.1,13.3,47,0.00,,,0.00,Rainwise IP-100,2013-05-17 14:56:00,
2013-05-17 11:01:00,61.5,41.0,30.10,NW,315,12.1,12.6,47,0.00,,,0.00,Rainwise IP-100,2013-05-17 15:01:00,
2013-05-17 11:06:00,61.2,41.0,30.10,North,360,6.1,14.5,48,0.00,,,0.00,Rainwise IP-100,2013-05-17 15:06:00,
2013-05-17 11:12:00,61.3,41.0,30.11,NNW,337,10.5,14.9,47,0.00,,,0.00,Rainwise IP-100,2013-05-17 15:12:00,
2013-05-17 11:17:00,61.5,40.0,30.11,NNW,337,9.3,15.2,46,0.00,,,0.00,Rainwise IP-100,2013-05-17 15:17:00,
2013-05-17 11:22:00,61.5,40.0,30.12,NNE,22,10.3,14.2,46,0.00,,,0.00,Rainwise IP-100,2013-05-17 15:22:00,
2013-05-17 11:27:00,61.5,40.0,30.11,NNW,337,7.2,16.3,46,0.00,,,0.00,Rainwise IP-100,2013-05-17 15:27:00,
2013-05-17 11:32:00,61.6,40.0,30.11,NNW,337,6.8,13.1,46,0.00,,,0.00,Rainwise IP-100,2013-05-17 15:32:00,
2013-05-17 11:37:00,61.3,40.0,30.12,NNW,337,9.6,18.4,45,0.00,,,0.00,Rainwise IP-100,2013-05-17 15:37:00,
2013-05-17 11:42:00,61.1,39.0,30.11,NNW,337,9.6,15.9,45,0.00,,,0.00,Rainwise IP-100,2013-05-17 15:42:00,
2013-05-17 11:47:00,61.4,39.0,30.12,WNW,292,8.9,15.2,44,0.00,,,0.00,Rainwise IP-100,2013-05-17 15:47:00,
2013-05-17 11:53:00,61.3,39.0,30.10,WNW,292,15.2,22.2,44,0.00,,,0.00,Rainwise IP-100,2013-05-17 15:53:00,
2013-05-17 11:58:00,61.0,39.0,30.11,NNW,337,13.1,20.3,44,0.00,,,0.00,Rainwise IP-100,2013-05-17 15:58:00,
2013-05-17 12:03:00,60.9,39.0,30.11,WNW,292,15.6,21.9,44,0.00,,,0.00,Rainwise IP-100,2013-05-17 16:03:00,
2013-05-17 12:08:00,61.2,39.0,30.11,North,360,13.5,20.8,44,0.00,,,0.00,Rainwise IP-100,2013-05-17 16:08:00,
2013-05-17 12:13:00,61.7,39.0,30.11,NNW,337,9.3,15.2,44,0.00,,,0.00,Rainwise IP-100,2013-05-17 16:13:00,
2013-05-17 12:18:00,62.3,40.0,30.10,NW,315,14.9,15.9,43,0.00,,,0.00,Rainwise IP-100,2013-05-17 16:18:00,
2013-05-17 12:23:00,62.4,40.0,30.10,NNW,337,11.7,17.3,43,0.00,,,0.00,Rainwise IP-100,2013-05-17 16:23:00,
2013-05-17 12:29:00,62.3,39.0,30.11,NW,315,10.3,18.0,42,0.00,,,0.00,Rainwise IP-100,2013-05-17 16:29:00,
2013-05-17 12:34:00,62.2,39.0,30.11,NNW,337,12.8,18.0,43,0.00,,,0.00,Rainwise IP-100,2013-05-17 16:34:00,
2013-05-17 12:39:00,62.2,39.0,30.11,NNW,337,12.4,23.3,43,0.00,,,0.00,Rainwise IP-100,2013-05-17 16:39:00,
2013-05-17 12:44:00,62.9,39.0,30.12,NNW,337,9.1,16.3,42,0.00,,,0.00,Rainwise IP-100,2013-05-17 16:44:00,
2013-05-17 12:49:00,63.3,39.0,30.11,NNW,337,12.1,19.6,41,0.00,,,0.00,Rainwise IP-100,2013-05-17 16:49:00,
2013-05-17 12:54:00,63.1,39.0,30.11,NNW,337,10.7,18.7,42,0.00,,,0.00,Rainwise IP-100,2013-05-17 16:54:00,
2013-05-17 12:59:00,63.1,39.0,30.11,NW,315,13.1,21.0,42,0.00,,,0.00,Rainwise IP-100,2013-05-17 16:59:00,
2013-05-17 13:04:00,63.1,39.0,30.11,WNW,292,13.5,17.7,42,0.00,,,0.00,Rainwise IP-100,2013-05-17 17:04:00,
2013-05-17 13:10:00,63.2,39.0,30.11,NW,315,8.2,20.8,42,0.00,,,0.00,Rainwise IP-100,2013-05-17 17:10:00,
2013-05-17 13:15:00,63.3,39.0,30.11,NNW,337,18.9,24.9,41,0.00,,,0.00,Rainwise IP-100,2013-05-17 17:15:00,
2013-05-17 13:20:00,63.4,39.0,30.11,NNW,337,10.0,19.4,40,0.00,,,0.00,Rainwise IP-100,2013-05-17 17:20:00,
2013-05-17 13:25:00,63.5,39.0,30.11,NNW,337,17.7,19.6,40,0.00,,,0.00,Rainwise IP-100,2013-05-17 17:25:00,
2013-05-17 13:30:00,63.7,38.0,30.11,NNW,337,12.8,21.0,39,0.00,,,0.00,Rainwise IP-100,2013-05-17 17:30:00,
2013-05-17 13:35:00,63.9,38.0,30.12,NNW,337,10.0,19.6,39,0.00,,,0.00,Rainwise IP-100,2013-05-17 17:35:00,
2013-05-17 13:40:00,64.1,38.0,30.11,NNW,337,10.5,21.9,39,0.00,,,0.00,Rainwise IP-100,2013-05-17 17:40:00,
2013-05-17 13:46:00,64.6,38.0,30.12,NNW,337,12.6,16.3,38,0.00,,,0.00,Rainwise IP-100,2013-05-17 17:46:00,
2013-05-17 13:51:00,64.7,38.0,30.11,NNW,337,16.1,21.9,38,0.00,,,0.00,Rainwise IP-100,2013-05-17 17:51:00,
2013-05-17 13:56:00,64.7,38.0,30.11,NNE,22,11.2,21.7,38,0.00,,,0.00,Rainwise IP-100,2013-05-17 17:56:00,
2013-05-17 14:01:00,65.5,39.0,30.12,NNW,337,12.8,21.0,38,0.00,,,0.00,Rainwise IP-100,2013-05-17 18:01:00,
2013-05-17 14:06:00,65.8,39.0,30.11,NNW,337,13.5,16.3,37,0.00,,,0.00,Rainwise IP-100,2013-05-17 18:06:00,
2013-05-17 14:11:00,65.7,38.0,30.11,West,270,7.7,17.7,37,0.00,,,0.00,Rainwise IP-100,2013-05-17 18:11:00,
2013-05-17 14:16:00,65.6,39.0,30.11,NNW,337,15.6,17.5,38,0.00,,,0.00,Rainwise IP-100,2013-05-17 18:16:00,
2013-05-17 14:22:00,65.7,39.0,30.11,NW,315,11.0,21.7,38,0.00,,,0.00,Rainwise IP-100,2013-05-17 18:22:00,
2013-05-17 14:27:00,65.9,39.0,30.10,NW,315,13.5,21.2,38,0.00,,,0.00,Rainwise IP-100,2013-05-17 18:27:00,
2013-05-17 14:32:00,66.5,39.0,30.11,NNW,337,10.5,15.9,37,0.00,,,0.00,Rainwise IP-100,2013-05-17 18:32:00,
2013-05-17 14:37:00,67.1,39.0,30.11,NNW,337,7.5,20.1,36,0.00,,,0.00,Rainwise IP-100,2013-05-17 18:37:00,
2013-05-17 14:42:00,67.2,39.0,30.11,NNW,337,21.2,21.2,36,0.00,,,0.00,Rainwise IP-100,2013-05-17 18:42:00,
2013-05-17 14:47:00,66.9,39.0,30.10,NNW,337,14.5,24.5,36,0.00,,,0.00,Rainwise IP-100,2013-05-17 18:47:00,
2013-05-17 14:52:00,66.8,39.0,30.11,WNW,292,8.2,19.4,37,0.00,,,0.00,Rainwise IP-100,2013-05-17 18:52:00,
2013-05-17 14:57:00,67.1,40.0,30.11,NNW,337,11.2,21.5,37,0.00,,,0.00,Rainwise IP-100,2013-05-17 18:57:00,
2013-05-17 15:02:00,67.8,40.0,30.11,NW,315,6.3,14.5,36,0.00,,,0.00,Rainwise IP-100,2013-05-17 19:02:00,
2013-05-17 15:08:00,68.4,40.0,30.10,NW,315,13.3,17.0,35,0.00,,,0.00,Rainwise IP-100,2013-05-17 19:08:00,
2013-05-17 15:13:00,68.0,40.0,30.10,WNW,292,7.2,14.9,36,0.00,,,0.00,Rainwise IP-100,2013-05-17 19:13:00,
2013-05-17 15:18:00,67.7,39.0,30.10,West,270,13.5,21.2,36,0.00,,,0.00,Rainwise IP-100,2013-05-17 19:18:00,
2013-05-17 15:23:00,67.4,39.0,30.10,WSW,247,6.8,16.8,36,0.00,,,0.00,Rainwise IP-100,2013-05-17 19:23:00,
2013-05-17 15:28:00,67.9,40.0,30.10,NW,315,9.3,16.8,36,0.00,,,0.00,Rainwise IP-100,2013-05-17 19:28:00,
2013-05-17 15:33:00,68.5,40.0,30.10,NNW,337,11.7,15.2,36,0.00,,,0.00,Rainwise IP-100,2013-05-17 19:33:00,
2013-05-17 15:38:00,69.1,40.0,30.10,NNW,337,4.9,16.3,35,0.00,,,0.00,Rainwise IP-100,2013-05-17 19:38:00,
2013-05-17 15:44:00,69.7,40.0,30.10,North,360,3.7,13.3,34,0.00,,,0.00,Rainwise IP-100,2013-05-17 19:44:00,
2013-05-17 15:49:00,70.4,40.0,30.10,NW,315,7.0,11.0,33,0.00,,,0.00,Rainwise IP-100,2013-05-17 19:49:00,
2013-05-17 15:54:00,70.3,40.0,30.09,North,360,8.9,16.3,33,0.00,,,0.00,Rainwise IP-100,2013-05-17 19:54:00,
2013-05-17 15:59:00,70.0,39.0,30.09,NNW,337,10.7,16.1,33,0.00,,,0.00,Rainwise IP-100,2013-05-17 19:59:00,
2013-05-17 16:04:00,70.0,39.0,30.09,NNW,337,10.7,14.2,33,0.00,,,0.00,Rainwise IP-100,2013-05-17 20:04:00,
2013-05-17 16:09:00,70.2,39.0,30.10,WNW,292,8.2,11.4,33,0.00,,,0.00,Rainwise IP-100,2013-05-17 20:09:00,
2013-05-17 16:14:00,70.4,40.0,30.09,NNW,337,8.6,15.4,33,0.00,,,0.00,Rainwise IP-100,2013-05-17 20:14:00,
2013-05-17 16:20:00,70.8,40.0,30.09,NNW,337,4.9,14.9,33,0.00,,,0.00,Rainwise IP-100,2013-05-17 20:20:00,
2013-05-17 16:25:00,71.6,40.0,30.10,NNE,22,7.7,14.2,32,0.00,,,0.00,Rainwise IP-100,2013-05-17 20:25:00,
2013-05-17 16:30:00,72.1,39.0,30.10,NNW,337,10.5,10.7,31,0.00,,,0.00,Rainwise IP-100,2013-05-17 20:30:00,
2013-05-17 16:35:00,72.2,40.0,30.10,NNW,337,9.1,17.5,31,0.00,,,0.00,Rainwise IP-100,2013-05-17 20:35:00,
2013-05-17 16:40:00,72.1,39.0,30.09,NNW,337,9.1,16.8,31,0.00,,,0.00,Rainwise IP-100,2013-05-17 20:40:00,
2013-05-17 16:45:00,71.5,39.0,30.10,NNW,337,7.2,15.2,31,0.00,,,0.00,Rainwise IP-100,2013-05-17 20:45:00,
2013-05-17 16:50:00,71.1,39.0,30.10,North,360,9.3,16.8,32,0.00,,,0.00,Rainwise IP-100,2013-05-17 20:50:00,
2013-05-17 16:55:00,71.3,40.0,30.10,North,360,8.4,14.7,32,0.00,,,0.00,Rainwise IP-100,2013-05-17 20:55:00,
2013-05-17 17:01:00,72.1,39.0,30.10,NNW,337,9.1,10.0,31,0.00,,,0.00,Rainwise IP-100,2013-05-17 21:01:00,
2013-05-17 17:06:00,72.1,39.0,30.10,WNW,292,6.8,13.1,31,0.00,,,0.00,Rainwise IP-100,2013-05-17 21:06:00,
2013-05-17 17:11:00,71.6,39.0,30.11,NNW,337,12.4,12.4,31,0.00,,,0.00,Rainwise IP-100,2013-05-17 21:11:00,
2013-05-17 17:16:00,71.6,39.0,30.11,NNW,337,6.3,16.3,31,0.00,,,0.00,Rainwise IP-100,2013-05-17 21:16:00,
2013-05-17 17:21:00,71.5,40.0,30.11,NNW,337,5.4,13.1,32,0.00,,,0.00,Rainwise IP-100,2013-05-17 21:21:00,
2013-05-17 17:26:00,71.5,40.0,30.10,WNW,292,4.0,16.1,32,0.00,,,0.00,Rainwise IP-100,2013-05-17 21:26:00,
2013-05-17 17:31:00,72.0,39.0,30.11,NNW,337,5.4,16.1,31,0.00,,,0.00,Rainwise IP-100,2013-05-17 21:31:00,
2013-05-17 17:36:00,71.8,39.0,30.11,NW,315,11.7,12.4,31,0.00,,,0.00,Rainwise IP-100,2013-05-17 21:36:00,
2013-05-17 17:41:00,71.4,39.0,30.11,NNW,337,7.7,14.5,31,0.00,,,0.00,Rainwise IP-100,2013-05-17 21:41:00,
2013-05-17 17:47:00,71.4,39.0,30.11,NNW,337,8.6,14.0,31,0.00,,,0.00,Rainwise IP-100,2013-05-17 21:47:00,
2013-05-17 17:52:00,71.3,39.0,30.11,NNW,337,8.6,13.1,31,0.00,,,0.00,Rainwise IP-100,2013-05-17 21:52:00,
2013-05-17 17:57:00,71.1,39.0,30.11,NNW,337,6.8,11.7,32,0.00,,,0.00,Rainwise IP-100,2013-05-17 21:57:00,
2013-05-17 18:02:00,71.0,39.0,30.12,NNW,337,5.8,12.6,32,0.00,,,0.00,Rainwise IP-100,2013-05-17 22:02:00,
2013-05-17 18:07:00,71.9,39.0,30.12,NE,45,2.3,8.6,31,0.00,,,0.00,Rainwise IP-100,2013-05-17 22:07:00,
2013-05-17 18:12:00,71.9,39.0,30.12,NNE,22,6.1,8.4,31,0.00,,,0.00,Rainwise IP-100,2013-05-17 22:12:00,
2013-05-17 18:17:00,71.7,39.0,30.12,North,360,4.2,10.5,31,0.00,,,0.00,Rainwise IP-100,2013-05-17 22:17:00,
2013-05-17 18:23:00,72.2,40.0,30.12,NNE,22,7.7,10.7,31,0.00,,,0.00,Rainwise IP-100,2013-05-17 22:23:00,
2013-05-17 18:28:00,72.6,40.0,30.13,NNE,22,8.4,11.2,31,0.00,,,0.00,Rainwise IP-100,2013-05-17 22:28:00,
2013-05-17 18:33:00,72.2,40.0,30.12,NNW,337,3.7,11.0,31,0.00,,,0.00,Rainwise IP-100,2013-05-17 22:33:00,
2013-05-17 18:38:00,71.8,39.0,30.13,NNW,337,0.0,7.0,31,0.00,,,0.00,Rainwise IP-100,2013-05-17 22:38:00,
2013-05-17 18:43:00,71.5,39.0,30.13,North,360,6.3,9.3,31,0.00,,,0.00,Rainwise IP-100,2013-05-17 22:43:00,
2013-05-17 18:48:00,71.0,39.0,30.13,NNE,22,6.1,8.9,32,0.00,,,0.00,Rainwise IP-100,2013-05-17 22:48:00,
2013-05-17 18:53:00,70.6,39.0,30.14,North,360,7.2,7.9,32,0.00,,,0.00,Rainwise IP-100,2013-05-17 22:53:00,
2013-05-17 18:58:00,70.4,39.0,30.14,NNE,22,7.5,9.3,32,0.00,,,0.00,Rainwise IP-100,2013-05-17 22:58:00,
2013-05-17 19:04:00,70.3,40.0,30.14,NNW,337,4.0,11.9,33,0.00,,,0.00,Rainwise IP-100,2013-05-17 23:04:00,
2013-05-17 19:09:00,70.5,40.0,30.14,NNE,22,4.9,6.8,33,0.00,,,0.00,Rainwise IP-100,2013-05-17 23:09:00,
2013-05-17 19:13:00,70.3,40.0,30.14,NNE,22,9.1,10.0,33,0.00,,,0.00,Rainwise IP-100,2013-05-17 23:13:00,
2013-05-17 19:18:00,69.6,40.0,30.15,North,360,6.5,9.1,34,0.00,,,0.00,Rainwise IP-100,2013-05-17 23:18:00,
2013-05-17 19:23:00,69.1,40.0,30.15,NNW,337,6.3,10.0,35,0.00,,,0.00,Rainwise IP-100,2013-05-17 23:23:00,
2013-05-17 19:29:00,68.8,40.0,30.15,North,360,2.6,9.8,35,0.00,,,0.00,Rainwise IP-100,2013-05-17 23:29:00,
2013-05-17 19:34:00,68.5,40.0,30.15,NNE,22,5.8,11.7,36,0.00,,,0.00,Rainwise IP-100,2013-05-17 23:34:00,
2013-05-17 19:39:00,68.3,40.0,30.16,NNE,22,8.2,8.4,36,0.00,,,0.00,Rainwise IP-100,2013-05-17 23:39:00,
2013-05-17 19:44:00,68.1,40.0,30.16,NNE,22,2.1,9.8,36,0.00,,,0.00,Rainwise IP-100,2013-05-17 23:44:00,
2013-05-17 19:49:00,67.8,41.0,30.16,NNW,337,1.9,6.3,37,0.00,,,0.00,Rainwise IP-100,2013-05-17 23:49:00,
2013-05-17 19:54:00,67.4,40.0,30.17,NNE,22,5.1,8.2,37,0.00,,,0.00,Rainwise IP-100,2013-05-17 23:54:00,
2013-05-17 19:59:00,67.1,40.0,30.16,NNE,22,4.2,6.5,37,0.00,,,0.00,Rainwise IP-100,2013-05-17 23:59:00,
2013-05-17 20:04:00,66.7,40.0,30.17,North,360,3.0,5.1,38,0.00,,,0.00,Rainwise IP-100,2013-05-18 00:04:00,
2013-05-17 20:10:00,66.4,40.0,30.17,North,360,1.9,4.7,38,0.00,,,0.00,Rainwise IP-100,2013-05-18 00:10:00,
2013-05-17 20:15:00,66.0,40.0,30.17,NNE,22,4.0,5.8,39,0.00,,,0.00,Rainwise IP-100,2013-05-18 00:15:00,
2013-05-17 20:20:00,65.7,40.0,30.18,NNE,22,3.7,5.8,39,0.00,,,0.00,Rainwise IP-100,2013-05-18 00:20:00,
2013-05-17 20:25:00,65.5,40.0,30.18,North,360,1.9,4.9,40,0.00,,,0.00,Rainwise IP-100,2013-05-18 00:25:00,
2013-05-17 20:30:00,65.2,40.0,30.18,NNE,22,2.6,4.7,40,0.00,,,0.00,Rainwise IP-100,2013-05-18 00:30:00,
2013-05-17 20:35:00,64.9,40.0,30.18,NNE,22,3.0,4.7,41,0.00,,,0.00,Rainwise IP-100,2013-05-18 00:35:00,
2013-05-17 20:40:00,64.8,40.0,30.19,NNE,22,3.0,4.0,41,0.00,,,0.00,Rainwise IP-100,2013-05-18 00:40:00,
2013-05-17 20:46:00,64.5,40.0,30.19,NNE,22,3.0,4.0,41,0.00,,,0.00,Rainwise IP-100,2013-05-18 00:46:00,
2013-05-17 20:51:00,64.2,40.0,30.19,North,360,2.8,4.7,42,0.00,,,0.00,Rainwise IP-100,2013-05-18 00:51:00,
2013-05-17 20:56:00,63.9,41.0,30.20,North,360,3.3,4.4,43,0.00,,,0.00,Rainwise IP-100,2013-05-18 00:56:00,
2013-05-17 21:01:00,63.8,41.0,30.20,NNE,22,3.3,6.1,43,0.00,,,0.00,Rainwise IP-100,2013-05-18 01:01:00,
2013-05-17 21:06:00,63.8,41.0,30.21,NNE,22,2.1,4.9,43,0.00,,,0.00,Rainwise IP-100,2013-05-18 01:06:00,
2013-05-17 21:11:00,63.6,40.0,30.21,NNE,22,2.8,5.4,43,0.00,,,0.00,Rainwise IP-100,2013-05-18 01:11:00,
2013-05-17 21:16:00,63.4,40.0,30.21,North,360,2.8,4.2,43,0.00,,,0.00,Rainwise IP-100,2013-05-18 01:16:00,
2013-05-17 21:22:00,63.0,41.0,30.21,North,360,1.4,3.5,44,0.00,,,0.00,Rainwise IP-100,2013-05-18 01:22:00,
2013-05-17 21:27:00,62.5,41.0,30.21,North,360,1.6,2.1,46,0.00,,,0.00,Rainwise IP-100,2013-05-18 01:27:00,
2013-05-17 21:32:00,62.0,42.0,30.21,NNW,337,2.8,3.3,48,0.00,,,0.00,Rainwise IP-100,2013-05-18 01:32:00,
2013-05-17 21:37:00,61.5,42.0,30.21,NNW,337,4.2,4.2,49,0.00,,,0.00,Rainwise IP-100,2013-05-18 01:37:00,
2013-05-17 21:42:00,60.8,43.0,30.21,NNW,337,3.5,4.7,52,0.00,,,0.00,Rainwise IP-100,2013-05-18 01:42:00,
2013-05-17 21:47:00,60.2,43.0,30.22,NNW,337,3.7,4.2,54,0.00,,,0.00,Rainwise IP-100,2013-05-18 01:47:00,
2013-05-17 21:52:00,59.9,43.0,30.22,NNW,337,5.1,5.1,54,0.00,,,0.00,Rainwise IP-100,2013-05-18 01:52:00,
2013-05-17 21:58:00,59.7,43.0,30.22,NNW,337,4.4,5.4,55,0.00,,,0.00,Rainwise IP-100,2013-05-18 01:58:00,
2013-05-17 22:03:00,59.4,43.0,30.22,NNW,337,5.6,6.5,55,0.00,,,0.00,Rainwise IP-100,2013-05-18 02:03:00,
2013-05-17 22:08:00,59.1,43.0,30.22,NNW,337,5.6,6.3,56,0.00,,,0.00,Rainwise IP-100,2013-05-18 02:08:00,
2013-05-17 22:13:00,58.9,44.0,30.22,NNW,337,5.1,5.8,57,0.00,,,0.00,Rainwise IP-100,2013-05-18 02:13:00,
2013-05-17 22:18:00,58.8,44.0,30.22,NNW,337,5.6,6.8,57,0.00,,,0.00,Rainwise IP-100,2013-05-18 02:18:00,
2013-05-17 22:23:00,58.4,43.0,30.22,NNW,337,5.1,7.0,58,0.00,,,0.00,Rainwise IP-100,2013-05-18 02:23:00,
2013-05-17 22:28:00,58.0,44.0,30.22,NNW,337,5.8,6.5,59,0.00,,,0.00,Rainwise IP-100,2013-05-18 02:28:00,
2013-05-17 22:33:00,57.7,44.0,30.22,NNW,337,5.6,7.0,60,0.00,,,0.00,Rainwise IP-100,2013-05-18 02:33:00,
2013-05-17 22:39:00,57.5,44.0,30.22,NNW,337,4.7,6.8,60,0.00,,,0.00,Rainwise IP-100,2013-05-18 02:39:00,
2013-05-17 22:44:00,57.4,44.0,30.22,NNW,337,4.4,5.8,60,0.00,,,0.00,Rainwise IP-100,2013-05-18 02:44:00,
2013-05-17 22:49:00,57.2,44.0,30.22,NNW,337,3.0,5.8,61,0.00,,,0.00,Rainwise IP-100,2013-05-18 02:49:00,
2013-05-17 22:54:00,57.0,44.0,30.22,NW,315,4.2,4.2,62,0.00,,,0.00,Rainwise IP-100,2013-05-18 02:54:00,
2013-05-17 22:59:00,56.8,45.0,30.23,NW,315,4.4,4.7,63,0.00,,,0.00,Rainwise IP-100,2013-05-18 02:59:00,
2013-05-17 23:04:00,56.8,45.0,30.23,NW,315,3.3,5.1,63,0.00,,,0.00,Rainwise IP-100,2013-05-18 03:04:00,
2013-05-17 23:09:00,56.6,44.0,30.23,NNW,337,4.2,4.2,63,0.00,,,0.00,Rainwise IP-100,2013-05-18 03:09:00,
2013-05-17 23:15:00,56.3,44.0,30.23,NNW,337,4.2,4.7,63,0.00,,,0.00,Rainwise IP-100,2013-05-18 03:15:00,
2013-05-17 23:16:00,56.3,44.0,30.23,NNW,337,4.4,4.7,63,0.00,,,0.00,Rainwise IP-100,2013-05-18 03:16:00,
2013-05-17 23:21:00,56.3,44.0,30.24,NNW,337,3.7,4.9,63,0.00,,,0.00,Rainwise IP-100,2013-05-18 03:21:00,
2013-05-17 23:26:00,56.2,43.0,30.24,NNW,337,0.0,4.4,63,0.00,,,0.00,Rainwise IP-100,2013-05-18 03:26:00,
2013-05-17 23:31:00,56.1,44.0,30.24,South,180,1.6,3.5,65,0.00,,,0.00,Rainwise IP-100,2013-05-18 03:31:00,
2013-05-17 23:37:00,56.4,46.0,30.24,South,180,0.0,1.9,67,0.00,,,0.00,Rainwise IP-100,2013-05-18 03:37:00,
2013-05-17 23:42:00,56.5,45.0,30.24,South,180,0.0,1.6,66,0.00,,,0.00,Rainwise IP-100,2013-05-18 03:42:00,
2013-05-17 23:47:00,56.4,45.0,30.24,NW,315,2.3,2.3,66,0.00,,,0.00,Rainwise IP-100,2013-05-18 03:47:00,
2013-05-17 23:52:00,56.2,45.0,30.24,NW,315,2.1,2.8,67,0.00,,,0.00,Rainwise IP-100,2013-05-18 03:52:00,
2013-05-17 23:57:00,56.1,45.0,30.24,NW,315,1.9,2.6,66,0.00,,,0.00,Rainwise IP-100,2013-05-18 03:57:00,